YO2LC Weather Reports


time (UTC)temp
C
wind
direction
speed
KPH
gust
KPH
rain 1hr
cm
rain 24hr
cm
rain mn
cm
humidity
%
barometer
mb
20260906023511 16 171 0.0 0.0 0.00 0.00 0.00 74 1022.9
20260906023008 16 170 0.0 0.0 0.00 0.00 0.00 73 1023.0
20260906022508 16 170 0.0 0.0 0.00 0.00 0.00 73 1022.9
20260906022007 16 186 0.0 0.0 0.00 0.00 0.00 73 1022.9
20260906021507 16 218 0.0 0.0 0.00 0.00 0.00 73 1022.9
20260906021006 16 187 0.0 0.0 0.00 0.00 0.00 73 1022.9
20260906020504 16 161 0.0 0.0 0.00 0.00 0.00 73 1022.8
20260906020004 16 162 0.0 0.0 0.00 0.00 0.00 72 1022.6
20260906015502 16 154 0.0 0.0 0.00 0.00 0.00 71 1022.6
20260906015100 16 154 0.0 0.0 0.00 0.00 0.00 71 1022.5
20260906014559 16 153 0.0 0.0 0.00 0.00 0.00 70 1022.4
20260906014100 16 153 0.0 0.0 0.00 0.00 0.00 70 1022.3
20260906013557 16 153 0.0 0.0 0.00 0.00 0.00 70 1022.4
20260906013056 17 150 0.0 0.0 0.00 0.00 0.00 69 1022.5
20260906012554 17 150 0.0 0.0 0.00 0.00 0.00 68 1022.6
20260906012052 17 153 0.0 0.0 0.00 0.00 0.00 67 1022.7
20260906011551 17 181 0.0 0.0 0.00 0.00 0.00 66 1022.7
20260906011048 17 181 0.0 0.0 0.00 0.00 0.00 66 1022.6
20260906010547 17 194 0.0 0.0 0.00 0.00 0.00 65 1022.6
20260906010103 17 206 0.0 0.0 0.00 0.00 0.00 65 1022.5
20260906005543 17 235 0.0 0.0 0.00 0.00 0.00 64 1022.3
20260906005044 17 185 0.0 0.0 0.00 0.00 0.00 64 1022.4
20260906004552 17 178 0.0 0.0 0.00 0.00 0.00 63 1022.4
20260906004038 18 178 0.0 0.0 0.00 0.00 0.00 62 1022.2
20260906003537 18 178 0.0 0.0 0.00 0.00 0.00 61 1022.2
20260906003035 18 178 0.0 0.0 0.00 0.00 0.00 60 1022.2
20260906002534 19 178 0.0 0.0 0.00 0.00 0.00 59 1022.1
20260906002031 19 173 0.0 0.0 0.00 0.00 0.00 58 1022.0
20260906001545 19 213 0.0 0.0 0.00 0.00 0.00 58 1022.0
20260906001028 20 205 0.0 0.0 0.00 0.00 0.00 57 1022.0
20260906000527 20 217 0.0 0.0 0.00 0.00 0.00 57 1021.9
20260906000025 20 220 0.0 0.0 0.00 0.00 0.00 56 1022.0
20260905235524 20 194 0.0 0.0 0.00 0.00 0.00 55 1022.0
20260905235021 20 194 0.0 0.0 0.00 0.00 0.00 54 1022.0
20260905234520 20 231 0.0 0.0 0.00 0.00 0.00 53 1021.8
20260905234018 20 231 0.0 0.0 0.00 0.00 0.00 53 1021.7
20260905233517 21 251 0.0 0.0 0.00 0.00 0.00 53 1021.8
20260905233018 21 171 0.0 0.0 0.00 0.00 0.00 52 1021.6
20260905232518 21 164 0.0 0.0 0.00 0.00 0.00 52 1021.5
20260905232013 21 235 0.0 0.0 0.00 0.00 0.00 51 1021.6
20260905231516 21 241 0.0 0.0 0.00 0.00 0.00 51 1021.4
20260905231014 21 230 0.0 0.0 0.00 0.00 0.00 50 1021.4
20260905230511 21 219 0.0 0.0 0.00 0.00 0.00 50 1021.4
20260905230009 21 231 0.0 0.0 0.00 0.00 0.00 50 1021.5
20260905225510 21 218 0.0 0.0 0.00 0.00 0.00 49 1021.6
20260905225007 21 212 0.0 0.0 0.00 0.00 0.00 48 1021.4
20260905224507 21 236 0.0 0.0 0.00 0.00 0.00 47 1021.2
20260905224006 21 152 0.0 0.0 0.00 0.00 0.00 46 1021.2
20260905223504 21 179 0.0 0.0 0.00 0.00 0.00 46 1021.0
20260905223005 21 190 0.0 0.0 0.00 0.00 0.00 45 1020.8
20260905222503 21 179 0.0 0.0 0.00 0.00 0.00 45 1020.7
20260905222100 21 173 0.0 0.0 0.00 0.00 0.00 44 1020.8
20260905221602 21 180 0.0 0.0 0.00 0.00 0.00 43 1020.9
20260905221058 22 121 0.0 0.0 0.00 0.00 0.00 43 1020.7
20260905220600 22 193 0.0 0.0 0.00 0.00 0.00 43 1020.8
20260905220058 21 304 0.0 0.0 0.00 0.00 0.00 43 1020.7
20260905215554 21 144 0.0 0.0 0.00 0.00 0.00 44 1020.5
20260905215057 21 144 0.0 0.0 0.00 0.00 0.00 46 1020.4
20260905214552 21 126 0.0 0.0 0.00 0.00 0.00 46 1020.3
20260905214052 21 126 0.0 0.0 0.00 0.00 0.00 45 1020.4
20260905213550 21 129 0.0 0.0 0.00 0.00 0.00 45 1020.3
20260905213050 21 121 0.0 0.0 0.00 0.00 0.00 46 1020.2
20260905212547 22 121 0.0 0.0 0.00 0.00 0.00 45 1020.4
20260905212044 22 174 0.0 0.0 0.00 0.00 0.00 44 1020.4
20260905211546 22 180 0.0 0.0 0.00 0.00 0.00 42 1020.3
20260905211042 23 218 0.0 0.0 0.00 0.00 0.00 42 1020.2
20260905210540 23 232 0.0 0.0 0.00 0.00 0.00 42 1020.4
20260905210050 23 232 0.0 0.0 0.00 0.00 0.00 42 1020.3
20260905205538 23 254 0.0 0.0 0.00 0.00 0.00 42 1020.2
20260905205036 23 282 0.0 0.0 0.00 0.00 0.00 42 1020.2
20260905204535 23 255 0.0 0.0 0.00 0.00 0.00 43 1020.2
20260905204034 23 85 0.0 0.0 0.00 0.00 0.00 43 1020.1
20260905203533 23 254 0.0 0.0 0.00 0.00 0.00 43 1020.1
20260905203032 24 49 0.0 0.0 0.00 0.00 0.00 44 1020.1
20260905202530 24 88 0.0 0.0 0.00 0.00 0.00 46 1020.1
20260905202029 24 45 0.0 0.0 0.00 0.00 0.00 47 1020.0
20260905201530 24 253 0.0 0.0 0.00 0.00 0.00 49 1019.9
20260905201029 24 276 0.0 0.0 0.00 0.00 0.00 49 1019.9
20260905200527 24 288 0.0 0.0 0.00 0.00 0.00 49 1019.8
20260905200034 25 43 0.0 0.0 0.00 0.00 0.00 49 1019.8
20260905195526 25 319 0.0 0.0 0.00 0.00 0.00 49 1019.7
20260905195024 25 271 0.0 0.0 0.00 0.00 0.00 49 1019.7
20260905194523 25 240 0.0 0.0 0.00 0.00 0.00 48 1019.6
20260905194023 25 281 0.0 0.0 0.00 0.00 0.00 48 1019.5
20260905193521 25 237 0.0 0.0 0.00 0.00 0.00 47 1019.2
20260905193021 25 272 0.0 0.0 0.00 0.00 0.00 47 1019.2
20260905192519 26 281 0.0 0.0 0.00 0.00 0.00 46 1019.0
20260905192018 26 263 0.0 0.0 0.00 0.00 0.00 46 1018.8
20260905191519 26 254 0.0 0.0 0.00 0.00 0.00 46 1018.7
20260905191017 26 263 0.0 0.0 0.00 0.00 0.00 46 1018.7
20260905190514 26 284 0.0 0.0 0.00 0.00 0.00 46 1018.7
20260905190014 26 243 0.0 0.0 0.00 0.00 0.00 45 1018.6
20260905185512 26 238 0.0 0.0 0.00 0.00 0.00 45 1018.5
20260905185011 26 285 0.0 0.0 0.00 0.00 0.00 45 1018.3
20260905184517 26 254 0.0 0.0 0.00 0.00 0.00 45 1018.3
20260905184009 27 209 0.0 0.0 0.00 0.00 0.00 45 1018.2
20260905183611 27 280 0.0 0.0 0.00 0.00 0.00 45 1018.3
20260905183007 27 191 0.0 0.0 0.00 0.00 0.00 44 1018.2
20260905182507 27 244 0.0 0.0 0.00 0.00 0.00 44 1018.2
20260905182006 27 49 0.0 0.0 0.00 0.00 0.00 44 1018.2
20260905181504 27 209 0.0 0.0 0.00 0.00 0.00 44 1018.1
20260905181004 27 39 0.0 0.0 0.00 0.00 0.00 44 1018.0
20260905180505 27 35 0.0 0.0 0.00 0.00 0.00 44 1017.9
20260905180008 27 62 0.0 0.0 0.00 0.00 0.00 44 1017.8
20260905175503 27 33 0.0 0.0 0.00 0.00 0.00 44 1017.7
20260905175004 27 360 0.0 0.0 0.00 0.00 0.00 43 1017.7
20260905174502 28 74 0.0 0.0 0.00 0.00 0.00 43 1017.6
20260905174003 28 192 0.0 0.0 0.00 0.00 0.00 43 1017.5
20260905173502 28 12 0.0 0.0 0.00 0.00 0.00 43 1017.4
20260905173001 28 296 0.0 0.0 0.00 0.00 0.00 43 1017.3
20260905172600 28 40 0.0 0.0 0.00 0.00 0.00 43 1017.3
20260905172059 28 107 0.0 0.0 0.00 0.00 0.00 43 1017.1
20260905171559 28 148 0.0 0.0 0.00 0.00 0.00 43 1017.1
20260905171158 28 139 0.0 0.0 0.00 0.00 0.00 43 1017.0
20260905170557 28 49 0.0 0.0 0.00 0.00 0.00 43 1016.9
20260905170057 29 336 0.0 0.0 0.00 0.00 0.00 43 1016.7
20260905165556 29 57 0.0 0.0 0.00 0.00 0.00 43 1016.8
20260905165055 29 64 0.0 0.0 0.00 0.00 0.00 44 1016.6
20260905164555 29 30 0.0 0.0 0.00 0.00 0.00 45 1016.5
20260905164055 30 220 0.0 0.0 0.00 0.00 0.00 44 1016.5
20260905163556 30 21 0.0 0.0 0.00 0.00 0.00 45 1016.5
20260905163052 30 334 0.0 0.0 0.00 0.00 0.00 45 1016.5
20260905162551 30 219 0.0 0.0 0.00 0.00 0.00 45 1016.5
20260905162050 30 357 0.0 0.0 0.00 0.00 0.00 46 1016.5
20260905161550 30 280 0.0 0.0 0.00 0.00 0.00 46 1016.3
20260905161050 30 142 0.0 0.0 0.00 0.00 0.00 46 1016.2
20260905160549 31 124 0.0 0.0 0.00 0.00 0.00 46 1016.0
20260905160050 31 100 0.0 0.0 0.00 0.00 0.00 45 1015.8
20260905155547 31 66 0.0 0.0 0.00 0.00 0.00 45 1015.7
20260905155047 31 206 0.0 0.0 0.00 0.00 0.00 44 1015.7
20260905154546 32 36 0.0 0.0 0.00 0.00 0.00 43 1015.6
20260905154048 33 175 0.0 0.0 0.00 0.00 0.00 42 1015.5
20260905153548 33 8 0.0 0.0 0.00 0.00 0.00 40 1015.3
20260905153044 34 225 0.0 0.0 0.00 0.00 0.00 38 1015.1
20260905152543 34 291 0.0 0.0 0.00 0.00 0.00 35 1014.9
20260905152042 34 252 0.0 0.0 0.00 0.00 0.00 34 1014.9
20260905151546 35 274 0.0 0.0 0.00 0.00 0.00 33 1014.9
20260905151041 35 20 0.0 0.0 0.00 0.00 0.00 32 1014.9
20260905150542 35 240 0.0 0.0 0.00 0.00 0.00 32 1014.9
20260905150039 35 258 0.0 0.0 0.00 0.00 0.00 32 1015.0
20260905145539 35 233 0.0 0.0 0.00 0.00 0.00 32 1014.9
20260905145037 35 266 0.0 0.0 0.00 0.00 0.00 32 1015.0
20260905144544 35 245 0.0 0.0 0.00 0.00 0.00 32 1014.9
20260905144038 35 187 0.0 0.0 0.00 0.00 0.00 31 1014.9
20260905143534 35 259 0.0 0.0 0.00 0.00 0.00 32 1014.8
20260905143036 35 203 0.0 0.0 0.00 0.00 0.00 31 1014.8
20260905142535 35 226 0.0 0.0 0.00 0.00 0.00 31 1014.8
20260905142032 36 244 0.0 0.0 0.00 0.00 0.00 31 1014.9
20260905141631 35 176 0.0 0.0 0.00 0.00 0.00 31 1014.8
20260905141033 35 224 0.0 0.0 0.00 0.00 0.00 32 1014.7
20260905140527 36 175 0.0 0.0 0.00 0.00 0.00 31 1014.7
20260905140025 35 202 0.0 0.0 0.00 0.00 0.00 32 1014.8
20260905135525 36 244 0.0 0.0 0.00 0.00 0.00 31 1014.8
20260905135022 35 214 0.0 0.0 0.00 0.00 0.00 32 1014.8
20260905134527 35 216 0.0 0.0 0.00 0.00 0.00 32 1014.8
20260905134019 35 247 0.0 0.0 0.00 0.00 0.00 32 1014.8
20260905133516 35 260 0.0 0.0 0.00 0.00 0.00 32 1014.8
20260905133015 35 232 0.0 0.0 0.00 0.00 0.00 32 1014.8
20260905132513 35 282 0.0 0.0 0.00 0.00 0.00 31 1014.8
20260905132014 35 171 0.0 0.0 0.00 0.00 0.00 31 1014.7
20260905131509 35 211 0.0 0.0 0.00 0.00 0.00 32 1014.8
20260905131006 35 244 0.0 0.0 0.00 0.00 0.00 32 1014.9
20260905130503 35 235 0.0 0.0 0.00 0.00 0.00 32 1015.0
20260905130004 35 284 0.0 0.0 0.00 0.00 0.00 32 1015.1
20260905125501 35 268 0.0 0.0 0.00 0.00 0.00 32 1015.1
20260905125101 35 217 0.0 0.0 0.00 0.00 0.00 32 1015.1
20260905124558 35 168 0.0 0.0 0.00 0.00 0.00 32 1015.2
20260905124055 35 192 0.0 0.0 0.00 0.00 0.00 32 1015.2
20260905123553 35 346 0.0 0.0 0.00 0.00 0.00 32 1015.1
20260905123107 35 244 0.0 0.0 0.00 0.00 0.00 32 1015.3
20260905122554 35 228 0.0 0.0 0.00 0.00 0.00 32 1015.5
20260905122052 35 187 0.0 0.0 0.00 0.00 0.00 32 1015.6
20260905121547 35 181 0.0 0.0 0.00 0.00 0.00 32 1015.6
20260905121046 35 253 0.0 0.0 0.00 0.00 0.00 32 1015.7
20260905120546 35 292 0.0 0.0 0.00 0.00 0.00 32 1015.8
20260905120042 35 230 0.0 0.0 0.00 0.00 0.00 32 1015.9
20260905115541 35 237 0.0 0.0 0.00 0.00 0.00 32 1015.9
20260905115041 35 180 0.0 0.0 0.00 0.00 0.00 32 1016.1
20260905114542 35 218 0.0 0.0 0.00 0.00 0.00 32 1016.1
20260905114035 35 230 0.0 0.0 0.00 0.00 0.00 33 1016.2
20260905113535 35 186 0.0 0.0 0.00 0.00 0.00 33 1016.4
20260905113034 35 202 0.0 0.0 0.00 0.00 0.00 33 1016.2
20260905112531 35 186 0.0 0.0 0.00 0.00 0.00 32 1016.3
20260905112032 35 289 0.0 0.0 0.00 0.00 0.00 33 1016.3
20260905111528 34 163 0.0 0.0 0.00 0.00 0.00 33 1016.3
20260905111026 34 265 0.0 0.0 0.00 0.00 0.00 32 1016.3
20260905110528 34 256 0.0 0.0 0.00 0.00 0.00 32 1016.4
20260905110022 34 185 0.0 0.0 0.00 0.00 0.00 33 1016.4
20260905105521 34 219 0.0 0.0 0.00 0.00 0.00 33 1016.6
20260905105017 34 217 0.0 0.0 0.00 0.00 0.00 33 1016.5
20260905104515 34 284 0.0 0.0 0.00 0.00 0.00 34 1016.6
20260905104014 33 222 0.0 0.0 0.00 0.00 0.00 33 1016.7
20260905103514 33 249 0.0 0.0 0.00 0.00 0.00 33 1016.6
20260905103013 33 218 0.0 0.0 0.00 0.00 0.00 34 1016.6
20260905102512 33 245 0.0 0.0 0.00 0.00 0.00 35 1016.7
20260905102011 33 195 0.0 0.0 0.00 0.00 0.00 33 1016.7
20260905101510 33 171 0.0 0.0 0.00 0.00 0.00 33 1016.7
20260905101008 33 218 0.0 0.0 0.00 0.00 0.00 33 1016.7
20260905100508 33 232 0.0 0.0 0.00 0.00 0.00 33 1016.7
20260905100111 33 263 0.0 0.0 0.00 0.00 0.00 35 1016.6
20260905095507 33 282 0.0 0.0 0.00 0.00 0.00 34 1016.5
20260905095003 33 197 0.0 0.0 0.00 0.00 0.00 34 1016.7
20260905094503 33 36 0.0 0.0 0.00 0.00 0.00 36 1016.7
20260905094059 33 182 0.0 0.0 0.00 0.00 0.00 37 1016.7
20260905093559 33 100 0.0 0.0 0.00 0.00 0.00 36 1016.7
20260905093101 33 259 0.0 0.0 0.00 0.00 0.00 36 1016.7
20260905092557 33 71 0.0 0.0 0.00 0.00 0.00 36 1016.7
20260905092054 32 208 0.0 0.0 0.00 0.00 0.00 37 1016.6
20260905091555 32 250 0.0 0.0 0.00 0.00 0.00 37 1016.7
20260905091051 32 56 0.0 0.0 0.00 0.00 0.00 37 1016.7
20260905090550 32 144 0.0 0.0 0.00 0.00 0.00 37 1016.8
20260905090049 32 287 0.0 0.0 0.00 0.00 0.00 37 1016.9
20260905085550 32 201 0.0 0.0 0.00 0.00 0.00 38 1017.0
20260905085046 32 273 0.0 0.0 0.00 0.00 0.00 38 1017.0
20260905084553 32 237 0.0 0.0 0.00 0.00 0.00 38 1017.0
20260905084042 32 176 0.0 0.0 0.00 0.00 0.00 38 1017.1
20260905083544 32 215 0.0 0.0 0.00 0.00 0.00 38 1017.1
20260905083039 32 182 0.0 0.0 0.00 0.00 0.00 39 1016.9
20260905082538 31 119 0.0 0.0 0.00 0.00 0.00 39 1016.9
20260905082036 31 94 0.0 0.0 0.00 0.00 0.00 39 1016.8
20260905081535 31 158 0.0 0.0 0.00 0.00 0.00 40 1016.9
20260905081033 31 140 0.0 0.0 0.00 0.00 0.00 40 1016.8
20260905080531 30 156 0.0 0.0 0.00 0.00 0.00 41 1016.9
20260905080053 30 212 0.0 0.0 0.00 0.00 0.00 41 1016.9
20260905075529 30 114 0.0 0.0 0.00 0.00 0.00 41 1016.8
20260905075026 30 69 0.0 0.0 0.00 0.00 0.00 43 1016.8
20260905074528 30 98 0.0 0.0 0.00 0.00 0.00 42 1016.9
20260905074022 29 133 0.0 0.0 0.00 0.00 0.00 43 1016.9
20260905073521 29 204 0.0 0.0 0.00 0.00 0.00 44 1016.9
20260905073025 29 151 0.0 0.0 0.00 0.00 0.00 43 1016.8
20260905072520 28 126 0.0 0.0 0.00 0.00 0.00 44 1017.0
20260905072018 28 213 0.0 0.0 0.00 0.00 0.00 44 1017.0
20260905071518 28 180 0.0 0.0 0.00 0.00 0.00 45 1017.0
20260905071012 28 186 0.0 0.0 0.00 0.00 0.00 45 1016.9
20260905070509 28 181 0.0 0.0 0.00 0.00 0.00 45 1016.9
20260905070008 28 137 0.0 0.0 0.00 0.00 0.00 45 1016.9
20260905065508 28 171 0.0 0.0 0.00 0.00 0.00 46 1016.9
20260905065003 27 247 0.0 0.0 0.00 0.00 0.00 47 1016.8
20260905064501 27 218 0.0 0.0 0.00 0.00 0.00 47 1016.7
20260905064101 27 183 0.0 0.0 0.00 0.00 0.00 48 1016.7
20260905063658 27 205 0.0 0.0 0.00 0.00 0.00 49 1016.7
20260905063056 26 183 0.0 0.0 0.00 0.00 0.00 50 1016.7
20260905062554 26 225 0.0 0.0 0.00 0.00 0.00 52 1016.8
20260905062053 25 20 0.0 0.0 0.00 0.00 0.00 56 1016.8
20260905061557 25 230 0.0 0.0 0.00 0.00 0.00 61 1016.8
20260905061049 23 186 0.0 0.0 0.00 0.00 0.00 63 1016.8
20260905060547 23 14 0.0 0.0 0.00 0.00 0.00 65 1016.9
20260905060056 23 121 0.0 0.0 0.00 0.00 0.00 66 1016.9
20260905055548 22 20 0.0 0.0 0.00 0.00 0.00 66 1017.1
20260905055043 22 36 0.0 0.0 0.00 0.00 0.00 66 1017.0
20260905054551 21 250 0.0 0.0 0.00 0.00 0.00 66 1017.0
20260905054040 21 225 0.0 0.0 0.00 0.00 0.00 68 1017.1
20260905053542 20 253 0.0 0.0 0.00 0.00 0.00 68 1017.0
20260905053037 20 276 0.0 0.0 0.00 0.00 0.00 68 1016.9
20260905052538 20 273 0.0 0.0 0.00 0.00 0.00 69 1016.9
20260905052034 19 251 0.0 0.0 0.00 0.00 0.00 70 1017.0
20260905051545 19 93 0.0 0.0 0.00 0.00 0.00 72 1016.8
20260905051031 18 153 0.0 0.0 0.00 0.00 0.00 72 1016.9
20260905050531 18 153 0.0 0.0 0.00 0.00 0.00 73 1016.8
20260905050031 17 102 0.0 0.0 0.00 0.00 0.00 74 1016.8
20260905045530 17 102 0.0 0.0 0.00 0.00 0.00 76 1016.8
20260905045032 16 104 0.0 0.0 0.00 0.00 0.00 76 1016.8
20260905044537 16 104 0.0 0.0 0.00 0.00 0.00 76 1016.7
20260905044028 16 104 0.0 0.0 0.00 0.00 0.00 76 1016.7
20260905043528 16 104 0.0 0.0 0.00 0.00 0.00 76 1016.7
20260905043029 16 103 0.0 0.0 0.00 0.00 0.00 77 1016.6
20260905042528 16 223 0.0 0.0 0.00 0.00 0.00 77 1016.5
20260905042028 16 225 0.0 0.0 0.00 0.00 0.00 77 1016.6
20260905041528 16 225 0.0 0.0 0.00 0.00 0.00 77 1016.6
20260905041027 16 93 0.0 0.0 0.00 0.00 0.00 77 1016.6
20260905040530 16 110 0.0 0.0 0.00 0.00 0.00 77 1016.7
20260905040035 16 266 0.0 0.0 0.00 0.00 0.00 77 1016.7
20260905035527 16 135 0.0 0.0 0.00 0.00 0.00 77 1016.8
20260905035028 15 135 0.0 0.0 0.00 0.00 0.00 77 1016.8
20260905034525 15 192 0.0 0.0 0.00 0.00 0.00 78 1016.8
20260905034025 15 127 0.0 0.0 0.00 0.00 0.00 77 1016.8
20260905033524 15 103 0.0 0.0 0.00 0.00 0.00 77 1016.8
20260905033024 15 168 0.0 0.0 0.00 0.00 0.00 77 1016.8
20260905032524 15 168 0.0 0.0 0.00 0.00 0.00 77 1016.8
20260905032025 16 114 0.0 0.0 0.00 0.00 0.00 77 1016.9
20260905031534 16 99 0.0 0.0 0.00 0.00 0.00 77 1016.8
20260905031024 16 99 0.0 0.0 0.00 0.00 0.00 77 1016.8
20260905030523 15 100 0.0 0.0 0.00 0.00 0.00 77 1016.7
20260905030023 15 115 0.0 0.0 0.00 0.00 0.00 78 1016.7
20260905025522 15 122 0.0 0.0 0.00 0.00 0.00 78 1016.8
20260905025022 15 122 0.0 0.0 0.00 0.00 0.00 77 1016.7
20260905024521 15 225 0.0 0.0 0.00 0.00 0.00 78 1016.7
20260905024020 15 204 0.0 0.0 0.00 0.00 0.00 78 1016.8